Weather in Klyshky

Ukraine / Sumi District     51°46′09″N   33°17′53″E
temp.,
°C
wind,
m/s
gust,
m/s
humid.,
%
clouds,
%
prec.,
mm/h
press.,
hPa
HPBL,
m
14 april, wed
wed1400:00+10sse368968 0.6 1019225
03:00+9s368948 0.6 1019162
06:00+7sse359373 0.0 101997
09:00+10se3685100 0.1 1018330
12:00+13sse3468100 0.0 1018997
15:00+15se335296 0.3 10161512
18:00+12ese5673100 0.3 1015456
21:00+10sse2282100 0.3 101549
15 april, thu
thu1500:00+9ese2287100 0.0 101418
03:00+9se1188100 0.1 101314
06:00+9sse118896 0.0 101311
09:00+10ese128634 0.2 1013166
12:00+14ssw565799 0.4 10121454
15:00+15s455272 0.9 10111477
18:00+13sse1260100 0.3 1011211
21:00+10se377869 0.4 1012158
16 april, fri
fri1600:00+9ese4887100 0.1 1012369
03:00+7ese359373 0.1 1012106
06:00+7e2689100 0.0 1012163
09:00+10se577675 0.1 1013639
12:00+11se786399 0.2 10141478
15:00+11se786548 0.4 10151187
18:00+11se466385 0.1 10161267
21:00+7se368390 0.1 1017139
17 april, sat
sat1700:00+8ese2584100 0.1 1017166
03:00+7ese2391100 0.2 1018103
06:00+6e119399 0.0 101910
09:00+9nne1179100 0.0 1020320
12:00+11nw2371100 0.3 1019701
15:00+9w3693100 6.4 1018431
18:00+10nnw4896100 4.8 1017402
21:00+9ne51188100 5.3 1018415
18 april, sun
sun1800:00+7ne5129199 0.0 1019433
03:00+7ene6128998 0.0 1019547
06:00+7ene71187100 0.0 1020694
09:00+8ese7128127 0.0 1021762
12:00+11se686282 0.0 10221384
15:00+12ese2458100 0.1 10231126
18:00+12nne456788 0.2 1023645
21:00+9ene511845 0.4 1024330